Regional Weather Roundup
Issued by NWS

Home | Current Version | Previous Version | Text Only | Print | Product List | Glossary Off
Versions: 1 2 3 4 5 6 7 8 9 10 11 12 13 14 15 16 17 18 19 20 21 22 23 24 25 26 27 28 29 30 31 32 33 34 35 36 37

000
ASUS43 KDMX 220307
RWRIA

WEATHER ROUNDUP FOR IOWA
NATIONAL WEATHER SERVICE DES MOINES IA
1000 PM CDT TUE OCT 21 2014

NOTE: "FAIR" INDICATES FEW OR NO CLOUDS BELOW 12,000 FEET WITH NO
SIGNIFICANT WEATHER AND/OR OBSTRUCTIONS TO VISIBILITY.

* - THESE STATIONS ARE NOT NWS STATIONS...THUS NOT UNDER NWS
QUALITY CONTROL.  THEY ALSO DO NOT REPORT WEATHER SUCH
AS PRECIPITATION OR FOG.

IAZ001>003-012>014-020>022-031>034-043>046-220400-
   NORTHWEST IOWA

CITY           SKY/WX    TMP DP  RH WIND       PRES   REMARKS
CARROLL *      MOCLDY    50  43  76 SE7       30.13R
CHEROKEE *     CLEAR     54  43  66 SE9       30.09R
DENISON *      CLEAR     54  45  71 SE10      30.08R
LE MARS *      CLEAR     57  45  62 SE12      30.06R
ORANGE CITY *  CLEAR     57  45  62 SE9       30.06R
SHELDON *      CLEAR     55  43  62 SE15G22   30.06R
SIOUX CITY     CLEAR     56  41  57 SE7       30.06R
SPENCER        CLEAR     53  42  66 SE14      30.10R
STORM LAKE *   CLEAR     52  43  71 SE13      30.11R
$$

IAZ055>058-069>071-079>083-090>094-220400-
   SOUTHWEST IOWA

CITY           SKY/WX    TMP DP  RH WIND       PRES   REMARKS
ATLANTIC *     CLEAR     55  45  67 SE9       30.10R
AUDUBON *      CLEAR     50  43  76 CALM      30.13R
CLARINDA *     CLEAR     57  45  62 SE8G14    30.12R
COUNCIL BLFS * CLEAR     55  43  62 SE10      30.07R
CRESTON *      CLEAR     50  45  81 SE9       30.14R
HARLAN  *      CLEAR     54  46  76 SE6G14    30.13R
LAMONI         CLEAR     53  44  71 E6        30.15R
RED OAK *      CLEAR     57  45  62 SE9G17    30.10R
SHENANDOAH *     N/A     55  45  67 E9        30.10R
$$

IAZ047>049-059>061-072>074-084-220400-
   CENTRAL IOWA

CITY           SKY/WX    TMP DP  RH WIND       PRES   REMARKS
AMES           CLEAR     49  40  71 SE6       30.17R
ANKENY *       CLEAR     52  41  66 SE8       30.16S
CHARITON *     CLEAR     52  43  71 E10       30.16R
DES MOINES     CLEAR     55  41  59 SE13      30.16R
GRINNELL*      CLEAR     46  39  76 E8        30.20R
KNOXVILLE *    CLEAR     50  39  66 E8        30.16R
MARSHALLTOWN   CLEAR     43  38  82 E7        30.18R
PELLA *        CLEAR     48  41  76 SE6       30.20R
PERRY *          N/A     48  43  81 E6        30.15R
$$

IAZ004>006-015-016-023>025-035-036-220400-
   NORTH CENTRAL IOWA

CITY           SKY/WX    TMP DP  RH WIND       PRES   REMARKS
ALGONA *       CLEAR     50  41  71 SE12G18   30.15R
CLARION *      CLEAR     48  41  76 SE9G16    30.16S
ESTHERVILLE    CLEAR     49  40  71 SE14      30.11S
FORT DODGE *   CLEAR     48  37  66 SE8       30.15R
MASON CITY     CLEAR     46  39  76 SE9       30.20R
FOREST CITY *  CLEAR     46  39  76 SE8       30.17R
IOWA FALLS *     N/A     45  37  76 E6        30.19R
$$

IAZ007>011-017>019-026>030-037>042-050>054-066-220400-
   NORTHEAST IOWA

CITY           SKY/WX    TMP DP  RH WIND       PRES   REMARKS
CEDAR RAPIDS   CLEAR     44  38  79 E9        30.21R
CHARLES CITY * CLEAR     46  37  71 SE10      30.21R
CLINTON *      CLEAR     39  34  81 E7        30.28S WCI  34
DECORAH *      CLEAR     43  37  81 SE7       30.22S
DUBUQUE        CLEAR     41  37  86 E9        30.25R
MONTICELLO *   CLEAR     45  39  81 E7        30.24R
OELWEIN *      CLEAR     45  37  76 SE12G17   30.23R
WATERLOO       CLEAR     44  37  76 SE9       30.21R
$$

IAZ064-065-067-068-078-220400-
   EAST CENTRAL IOWA

CITY           SKY/WX    TMP DP  RH WIND       PRES   REMARKS
DAVENPORT      CLEAR     43  36  76 E8        30.25R
IOWA CITY      CLEAR     48  39  71 E10       30.24R
MT. PLEASANT * CLEAR     43  37  81 E6        30.22R
MUSCATINE *    CLEAR     50  37  62 E8G15     30.24R
QUAD CITIES    CLEAR     40  36  86 E7        30.25R
$$

IAZ062-063-075>077-085>089-095>099-220400-
   SOUTHEAST IOWA

CITY           SKY/WX    TMP DP  RH WIND       PRES   REMARKS
BURLINGTON     CLEAR     48  39  71 E7        30.22R
FAIRFIELD *    CLEAR     43  37  81 E10       30.21R
FORT MADISON * CLEAR     48  41  76 E3        30.22R HAZE
KEOKUK *       CLEAR     48  39  71 E8        30.20R
OSKALOOSA *      N/A     46  39  76 E8        30.20R
CENTERVILLE *  CLEAR     48  41  76 E6        30.19R
WASHINGTON *   CLEAR     43  39  87 E7        30.22R
$$

ABBREVIATIONS USED IN REMARKS
   TC - TEMPERATURES IN CELSIUS
  WCI - WIND CHILL INDEX
   HX - HEAT INDEX
  VSB - VISIBILITY
$$




USA.gov is the U.S. government's official web portal to all federal, state and local government web resources and services.